| time (UTC) | temp F | wind direction | speed MPH | gust MPH | rain 1hr in | rain 24hr in | rain mn in | humidity % | barometer mb |
| 20260502123017 | 41 | 0 | 5.0 | 9.0 | 0.00 | 0.00 | 0.00 | 85 | 1018.9 |
| 20260502113017 | 40 | 0 | 4.0 | 7.0 | 0.00 | 0.00 | 0.00 | 84 | 1018.4 |
| 20260502110018 | 40 | 0 | 5.0 | 9.0 | 0.00 | 0.00 | 0.00 | 83 | 1018.2 |
| 20260502103017 | 41 | 0 | 5.0 | 9.0 | 0.00 | 0.00 | 0.00 | 82 | 1018.2 |
| 20260502070017 | 46 | 0 | 2.0 | 3.0 | 0.00 | 0.00 | 0.00 | 69 | 1017.6 |
| 20260502063017 | 46 | 0 | 2.0 | 4.0 | 0.00 | 0.00 | 0.00 | 71 | 1017.6 |
| 20260502060037 | 46 | 0 | 1.0 | 3.0 | 0.00 | 0.00 | 0.00 | 71 | 1017.8 |
| 20260502053017 | 48 | 0.0 | 1.0 | 0.00 | 0.00 | 0.00 | 66 | 1017.8 | |
| 20260502050017 | 47 | 0.0 | 2.0 | 0.00 | 0.00 | 0.00 | 66 | 1017.8 | |
| 20260502043017 | 47 | 0.0 | 3.0 | 0.00 | 0.00 | 0.00 | 66 | 1017.6 | |
| 20260502040018 | 47 | 45 | 2.0 | 3.0 | 0.00 | 0.00 | 0.00 | 69 | 1017.7 |
| 20260502033017 | 47 | 0.0 | 2.0 | 0.00 | 0.00 | 0.00 | 67 | 1017.7 | |
| 20260502030017 | 48 | 45 | 1.0 | 4.0 | 0.00 | 0.00 | 0.00 | 66 | 1017.4 |
| 20260502023017 | 49 | 0 | 1.0 | 4.0 | 0.00 | 0.00 | 0.00 | 65 | 1016.9 |
| 20260502020019 | 50 | 0 | 1.0 | 5.0 | 0.00 | 0.00 | 0.00 | 65 | 1016.7 |
| 20260502013017 | 50 | 0 | 3.0 | 7.0 | 0.00 | 0.00 | 0.00 | 63 | 1016.1 |
| 20260502010017 | 51 | 0 | 1.0 | 4.0 | 0.00 | 0.00 | 0.00 | 63 | 1015.6 |
| 20260502003017 | 52 | 90 | 1.0 | 5.0 | 0.00 | 0.00 | 0.00 | 63 | 1015.4 |
| 20260502000017 | 52 | 0 | 4.0 | 9.0 | 0.00 | 0.00 | 0.00 | 61 | 1015.2 |
| 20260501233017 | 53 | 0 | 6.0 | 14.0 | 0.00 | 0.00 | 0.00 | 59 | 1015.1 |
| 20260501230018 | 54 | 0 | 5.0 | 13.0 | 0.00 | 0.00 | 0.00 | 56 | 1015.2 |
| 20260501223017 | 54 | 0 | 7.0 | 18.0 | 0.00 | 0.00 | 0.00 | 55 | 1015.2 |
| 20260501213037 | 56 | 0 | 1.0 | 8.0 | 0.00 | 0.00 | 0.00 | 51 | 1015.0 |
| 20260501210017 | 56 | 0 | 3.0 | 10.0 | 0.00 | 0.00 | 0.00 | 50 | 1015.2 |
| 20260501203038 | 55 | 0 | 6.0 | 15.0 | 0.00 | 0.00 | 0.00 | 50 | 1015.3 |
| 20260501200018 | 56 | 0 | 8.0 | 17.0 | 0.00 | 0.00 | 0.00 | 49 | 1015.5 |
| 20260501193038 | 57 | 0 | 6.0 | 20.0 | 0.00 | 0.00 | 0.00 | 47 | 1015.5 |
| 20260501190017 | 56 | 0 | 5.0 | 14.0 | 0.00 | 0.00 | 0.00 | 46 | 1015.6 |
| 20260501183038 | 57 | 0 | 5.0 | 14.0 | 0.00 | 0.02 | 0.00 | 45 | 1015.5 |
| 20260501180017 | 57 | 0 | 5.0 | 16.0 | 0.00 | 0.02 | 0.00 | 46 | 1015.6 |
| 20260501173018 | 57 | 0 | 5.0 | 20.0 | 0.00 | 0.02 | 0.00 | 47 | 1015.8 |
| 20260501170017 | 56 | 0 | 4.0 | 14.0 | 0.00 | 0.02 | 0.00 | 46 | 1016.0 |
| 20260501163018 | 54 | 0 | 4.0 | 12.0 | 0.00 | 0.02 | 0.00 | 48 | 1016.2 |
| 20260501160019 | 53 | 0 | 5.0 | 11.0 | 0.00 | 0.02 | 0.00 | 48 | 1016.4 |
| 20260501153018 | 53 | 0 | 3.0 | 9.0 | 0.00 | 0.02 | 0.00 | 49 | 1016.6 |
| 20260501150038 | 52 | 0 | 3.0 | 11.0 | 0.00 | 0.02 | 0.00 | 46 | 1016.5 |